RH
8 8 8 7 7 8 7 7 8 7 7 7 7 6 6 6 5 4 4 4 4 5 5 4 4 3 3 3 3 3 3 4 7 9 12 16 19 20 19 19 20 20 21 24 28 31 35 39 42 42 42 43 43 42 43 44 45 45 50 48 44 47 48 48 52 51 54 59 60 63 65 65 68 69 71 73 75 78 82 82 83 83 83 84 81 77 76 74
8 8 8 8 8 8 7 7 8 7 7 7 6 6 6 6 6 4 4 4 4 4 5 5 4 4 3 3 3 3 3 3 5 8 12 15 16 18 19 19 20 19 20 24 27 30 34 37 40 40 39 41 41 42 43 43 43 43 48 46 42 47 47 47 48 48 53 58 58 60 62 62 65 65 67 71 70 71 75 77 80 81 82 86 86 82 81 79
7 7 7 8 8 7 8 8 7 8 7 7 6 6 7 6 6 4 4 4 4 4 5 5 5 4 3 3 3 3 3 3 4 7 10 13 14 17 19 20 20 19 21 24 26 28 32 34 37 38 37 38 39 40 41 42 42 42 46 47 43 44 46 48 48 47 50 55 57 58 59 60 62 63 65 68 65 65 66 68 73 75 78 82 84 85 84 84
7 7 7 7 7 7 7 7 8 8 7 7 6 6 6 6 6 5 5 4 4 5 5 5 5 4 3 3 3 3 3 3 4 5 8 11 13 16 18 20 20 20 23 26 27 29 31 33 35 35 37 38 38 38 38 40 43 42 44 45 43 43 46 48 49 49 49 52 54 56 59 59 59 60 63 65 67 66 62 63 68 71 73 76 81 84 85 86
8 7 7 7 7 7 7 7 7 8 7 7 7 7 6 6 6 6 5 5 5 5 6 6 5 4 3 3 3 3 4 3 3 4 7 10 12 15 17 20 20 21 24 26 28 30 30 31 32 35 37 37 38 38 37 37 40 44 43 41 41 44 47 48 49 51 50 51 52 54 56 56 56 58 59 61 67 67 63 62 64 68 71 72 78 81 82 85
8 8 8 7 7 7 7 7 7 7 7 7 7 7 7 6 6 6 5 5 5 6 6 6 6 4 3 3 3 3 4 4 3 5 7 9 11 13 17 19 21 22 23 24 27 29 29 29 31 33 35 36 37 36 36 37 39 45 44 40 41 43 46 47 49 51 50 50 50 51 52 52 53 53 54 56 60 62 62 64 64 64 68 70 74 76 78 83
9 8 8 8 8 7 7 7 7 7 7 7 7 7 7 7 6 6 5 6 6 7 7 7 6 3 3 3 3 3 4 4 4 6 8 9 10 12 15 18 21 21 22 25 28 28 27 28 29 31 33 34 35 35 35 36 38 43 43 39 41 42 44 47 48 50 50 50 49 50 50 50 50 50 51 53 54 57 60 62 64 65 67 69 72 73 76 81
9 9 9 8 8 8 7 7 7 7 7 7 7 7 7 7 7 6 6 6 7 7 8 7 5 3 3 3 4 4 4 4 4 6 8 9 9 11 14 17 20 21 23 27 28 27 26 26 27 29 32 32 34 37 36 38 40 41 41 39 40 43 45 48 48 49 51 52 52 51 50 48 48 49 49 49 51 53 56 59 63 66 68 69 70 71 75 79
10 9 8 8 8 8 8 8 7 7 7 7 7 7 7 7 7 6 6 6 7 8 8 6 4 4 3 3 5 4 4 4 4 5 8 9 9 11 14 17 20 20 23 27 27 27 25 25 26 27 31 31 34 38 36 40 43 39 39 38 39 42 45 48 48 48 50 53 55 52 49 49 50 51 48 47 49 49 52 56 59 63 67 70 72 72 74 78
10 9 9 8 8 8 7 8 7 7 7 7 7 7 7 7 7 6 6 6 7 9 7 5 4 4 3 4 5 4 5 4 3 4 6 8 9 10 13 17 20 21 23 26 26 26 24 24 25 25 30 31 33 37 35 39 40 37 38 38 39 42 43 46 47 49 50 52 55 52 50 50 51 54 50 46 49 49 51 53 55 59 63 68 72 74 75 77
10 9 9 9 8 8 8 7 7 7 8 7 7 7 7 7 7 6 6 6 8 9 7 4 4 5 4 5 5 4 5 4 3 4 5 6 9 10 13 16 19 22 24 26 26 25 24 23 24 24 29 30 32 36 36 36 37 36 37 37 38 40 41 44 46 48 50 51 54 52 50 50 50 51 49 46 47 49 50 50 52 55 59 64 67 72 77 77
9 9 9 8 8 8 8 7 7 7 7 8 7 7 7 7 7 7 6 6 8 9 7 5 5 5 5 6 6 4 4 5 5 5 5 5 7 10 13 16 19 23 25 27 26 24 24 23 23 24 26 30 34 39 39 35 35 35 37 41 40 39 41 42 44 47 49 50 52 54 54 53 50 50 49 47 46 47 48 48 50 52 55 61 63 67 73 75
7 8 8 8 9 8 8 7 7 7 7 7 7 7 7 7 7 7 7 7 8 9 7 6 5 5 6 7 5 4 4 6 6 6 5 5 6 9 12 15 19 24 25 25 25 22 23 23 23 23 23 30 36 39 38 33 35 36 36 42 43 45 46 39 42 46 48 50 50 53 58 55 50 50 51 49 47 46 47 46 46 49 51 56 59 63 69 73
7 7 7 7 8 8 8 7 7 7 7 7 7 7 7 7 7 7 7 7 8 9 8 6 6 5 7 6 4 4 4 6 7 6 6 5 5 8 11 14 17 21 21 22 22 20 22 22 22 22 23 31 35 35 36 33 36 39 39 41 38 44 47 37 38 45 48 51 51 52 56 54 51 51 53 52 47 45 47 46 44 46 49 52 55 61 68 71
7 7 7 6 7 7 8 8 8 7 8 7 7 7 7 7 7 8 8 7 8 9 8 8 7 7 8 6 4 4 4 6 7 6 6 5 5 7 11 13 16 18 18 19 20 20 21 21 21 23 25 30 33 34 37 37 37 37 39 41 35 37 44 40 37 41 47 50 50 53 56 54 52 52 53 53 49 45 47 47 44 44 46 48 53 59 66 71
7 7 7 7 6 7 7 7 7 8 8 8 7 7 7 8 8 8 8 8 9 9 9 9 8 9 9 7 5 5 4 5 7 7 6 6 6 8 11 14 16 17 18 19 20 19 20 20 21 23 27 31 32 33 37 38 38 36 36 36 32 32 38 42 41 38 42 47 48 51 53 55 54 52 53 52 50 47 46 46 44 43 43 44 50 58 64 70
8 7 7 6 6 7 6 6 6 7 8 8 9 9 8 9 8 9 9 8 9 9 9 10 10 11 10 7 6 6 5 6 8 8 7 7 7 8 10 13 16 17 18 20 20 19 18 19 21 23 27 30 30 30 33 35 34 35 34 32 31 30 31 38 42 40 38 43 49 50 49 54 53 51 53 52 50 49 45 45 43 42 42 42 47 56 63 68
9 8 8 7 6 6 6 6 6 6 8 9 10 10 9 9 9 9 9 9 10 10 10 11 11 11 9 7 6 6 6 7 8 9 8 7 8 8 10 12 16 17 19 20 18 17 18 18 20 22 25 27 27 29 33 34 31 30 31 29 28 29 30 33 37 38 36 40 50 53 52 54 51 49 52 52 48 47 46 45 44 42 41 42 44 52 58 62
9 9 8 8 6 6 6 6 5 6 7 9 11 11 10 11 12 12 11 10 11 11 12 12 10 9 8 7 6 6 7 7 9 10 8 8 8 9 10 12 14 17 18 18 17 17 17 18 20 20 24 26 27 28 31 32 30 29 28 27 26 26 28 29 31 32 35 42 51 53 53 55 53 49 50 52 49 46 46 46 45 43 42 41 43 48 52 55
9 9 8 8 7 7 6 5 5 5 7 10 11 10 12 13 13 15 14 12 11 9 11 12 10 9 9 8 7 7 7 8 10 11 10 8 8 9 10 11 13 15 16 17 17 16 16 18 18 17 23 28 28 26 28 28 29 29 28 26 26 25 27 28 29 29 32 43 52 53 52 54 55 52 49 53 52 47 46 45 44 44 44 42 42 45 48 51
9 9 8 8 7 7 6 6 5 6 8 10 10 11 12 11 11 13 13 11 9 8 9 11 11 11 10 9 8 8 7 8 10 11 10 9 8 9 10 11 12 13 15 17 17 17 17 17 15 16 22 28 27 23 24 26 27 28 28 26 24 25 25 25 28 29 30 39 48 51 51 53 52 51 50 52 53 51 47 45 44 43 43 44 44 44 46 49
9 9 8 8 7 8 7 6 6 7 9 10 10 11 12 11 11 11 11 10 9 10 9 9 11 11 12 11 10 9 8 8 10 11 11 10 9 10 10 10 11 12 14 17 17 17 17 15 14 17 21 23 23 22 24 27 26 28 28 25 25 24 22 27 32 30 29 36 45 49 49 51 50 47 48 51 53 52 49 45 44 43 44 45 46 45 45 47
10 9 8 8 7 7 7 6 7 8 10 10 10 11 12 12 11 11 12 11 9 10 10 10 10 10 11 12 11 10 8 8 9 10 10 10 9 9 11 10 11 13 14 16 17 17 17 15 15 17 17 18 21 21 23 26 26 29 27 25 25 22 19 27 33 31 29 32 40 44 45 49 50 48 47 50 52 52 51 48 44 43 45 47 47 46 44 44
11 10 9 8 7 7 7 7 8 10 11 10 10 10 11 12 12 13 14 11 9 9 10 10 10 9 10 11 11 10 9 8 10 11 10 10 10 9 11 10 11 13 13 15 16 16 17 15 15 15 14 16 19 20 22 24 26 28 27 25 23 21 18 22 28 29 29 35 39 41 45 49 49 47 45 48 51 52 52 51 47 45 46 48 49 49 46 44
11 10 9 8 7 7 8 8 10 11 11 10 10 10 11 12 12 14 14 12 11 11 10 10 10 9 10 11 11 10 9 8 10 12 9 10 11 10 10 10 11 12 12 14 15 15 16 15 13 13 14 15 16 18 20 22 25 26 24 23 21 19 18 20 27 28 31 42 45 39 42 45 45 46 45 46 51 53 53 53 50 47 45 48 51 51 48 46
12 11 10 9 7 7 8 11 13 13 12 12 11 11 12 12 13 14 15 14 14 13 12 12 12 10 9 10 11 11 10 9 10 11 9 10 11 10 10 10 10 10 12 13 14 15 15 13 12 12 14 15 15 17 19 21 24 25 23 21 19 18 17 19 26 29 31 40 41 35 36 39 42 47 45 45 49 51 52 52 51 49 46 47 50 52 51 48
13 12 10 9 8 7 9 13 15 14 14 13 12 12 13 13 13 14 16 16 15 14 14 13 13 12 10 10 11 11 11 11 10 10 9 10 11 10 10 10 9 9 11 12 13 14 13 11 11 11 12 14 15 16 18 20 22 23 23 20 19 18 18 20 24 28 31 34 36 35 35 35 40 46 44 44 47 49 50 51 51 50 48 46 48 51 52 49
14 12 11 10 8 8 11 15 15 14 13 12 12 12 13 13 13 15 17 19 19 17 15 14 13 13 11 10 11 11 12 12 10 10 10 11 12 11 10 9 9 9 9 10 11 11 11 11 10 11 11 11 14 17 18 18 19 21 22 20 19 18 19 21 22 26 31 32 35 38 37 33 39 47 46 44 47 48 49 50 51 51 50 46 46 50 52 49
15 13 12 10 9 10 14 16 15 13 11 11 10 11 13 13 15 16 16 21 23 19 16 15 14 13 11 11 12 12 12 12 11 11 11 12 12 11 10 11 9 9 9 8 8 9 10 10 10 10 10 10 14 16 15 16 17 19 21 20 20 19 20 23 23 27 31 32 34 37 35 33 38 46 48 48 50 50 48 49 50 52 51 48 46 49 52 49
16 14 14 11 10 13 16 17 14 12 12 12 11 12 13 14 16 18 17 19 22 19 18 17 16 14 12 12 12 12 12 12 12 11 10 12 12 10 10 12 10 9 9 8 8 9 9 8 8 9 8 9 13 14 13 13 15 19 21 22 23 22 23 25 25 28 32 34 36 34 31 32 37 41 42 44 48 48 48 49 51 52 52 50 47 48 52 51
17 16 15 12 11 15 18 18 15 13 13 13 12 13 14 16 16 17 19 20 21 20 18 17 17 16 15 14 14 13 13 12 12 12 11 11 12 10 11 11 10 9 10 8 7 7 8 7 8 7 7 8 10 13 13 12 13 18 22 25 27 27 28 28 30 32 31 34 35 32 31 34 39 42 39 41 44 45 47 49 49 52 52 50 47 47 51 52
18 17 15 13 15 18 19 18 16 14 14 13 14 14 15 18 16 14 17 22 22 22 20 18 17 17 17 17 15 13 13 13 13 12 11 11 11 10 10 11 10 9 9 9 8 7 7 7 7 7 7 8 9 12 14 13 14 19 22 25 26 28 32 32 35 34 31 34 34 30 33 36 38 39 38 42 47 47 47 48 48 49 51 51 48 47 50 51
20 19 16 15 19 20 18 18 16 14 14 14 15 15 15 19 18 15 16 22 25 23 20 19 18 17 19 18 16 14 14 15 14 13 12 11 11 11 9 9 9 8 9 9 8 9 7 6 7 7 7 8 9 12 15 16 18 19 22 25 25 27 31 30 30 30 30 35 34 31 34 37 39 40 38 41 47 47 47 47 47 47 48 51 51 49 49 49
22 20 17 19 24 21 18 18 15 14 14 13 15 17 16 17 16 14 18 22 24 22 21 21 20 19 20 19 18 16 15 15 13 13 14 12 12 13 11 10 9 8 9 10 10 9 9 7 6 7 7 8 8 11 15 18 21 21 22 24 24 25 27 27 28 27 28 32 34 34 34 35 39 41 38 40 44 46 47 46 46 46 46 48 51 51 48 47
23 20 17 24 28 22 19 18 14 15 15 14 17 18 17 17 14 15 20 22 22 22 21 22 22 22 21 19 19 18 16 16 14 13 15 13 13 14 12 10 10 8 9 11 11 9 9 8 7 7 7 7 8 10 14 19 23 23 21 23 23 23 23 24 25 25 24 26 31 34 32 32 37 38 37 39 42 44 46 47 46 47 48 48 48 49 47 46
24 20 18 26 32 26 22 20 16 16 16 15 18 18 16 17 15 15 19 21 23 23 23 24 24 24 24 21 20 19 18 17 15 13 14 14 13 13 13 11 10 9 8 10 11 10 9 10 9 8 7 7 8 10 13 18 23 26 23 22 23 22 22 24 25 26 24 23 28 31 30 33 38 39 38 40 43 44 45 46 46 47 50 50 49 48 47 48
25 21 18 25 33 30 25 23 19 17 17 16 18 19 16 15 14 13 17 21 23 23 24 27 26 25 26 23 21 20 20 19 16 15 14 14 13 13 13 12 10 9 8 9 11 12 10 10 9 8 8 8 9 12 16 18 21 26 27 23 22 22 21 23 26 28 27 25 27 29 29 32 39 42 42 40 44 45 43 44 47 47 49 51 51 50 48 49
25 21 20 28 36 34 28 26 23 18 16 16 18 18 16 14 12 12 16 22 25 26 28 29 28 26 27 26 23 21 21 20 18 16 16 15 14 13 12 12 11 10 9 9 12 13 11 10 10 8 7 8 9 13 18 19 18 21 25 24 22 23 24 25 25 26 27 26 25 28 30 32 37 41 40 40 42 43 41 42 44 47 48 49 51 51 50 50
26 23 25 31 36 36 31 28 24 18 17 17 17 17 15 13 12 12 18 25 26 29 30 29 29 29 28 26 25 24 23 22 21 19 17 16 15 13 12 12 12 11 10 9 11 13 11 11 13 10 7 9 10 12 18 21 18 17 19 22 21 23 25 28 27 24 24 26 26 28 31 33 36 37 36 38 40 39 39 41 42 45 47 48 50 50 50 52
28 25 25 29 35 38 34 29 24 18 17 17 16 15 14 13 13 17 25 28 28 31 31 29 30 33 33 29 27 26 26 25 23 22 20 17 15 13 12 12 12 12 12 10 11 14 12 12 15 13 8 8 10 11 16 21 21 18 17 19 20 21 21 22 24 23 22 23 25 27 30 33 35 34 34 36 37 36 38 40 41 43 45 48 49 49 51 52
30 26 26 27 33 39 37 30 25 19 18 17 15 14 15 14 17 24 30 31 31 34 33 30 33 36 37 36 33 29 27 26 24 23 22 18 15 14 13 12 12 12 12 12 12 14 13 12 14 12 10 9 10 12 15 19 21 20 19 19 19 20 20 20 21 22 21 20 23 27 31 34 34 31 32 34 36 36 37 38 40 42 44 48 49 51 52 51
31 28 25 25 33 42 39 31 27 21 19 18 16 18 19 18 21 26 32 34 34 35 34 33 36 38 40 41 38 32 28 26 24 22 21 18 15 15 15 13 13 12 12 12 12 13 13 13 14 13 11 9 11 12 13 15 17 18 20 21 21 21 21 20 20 22 21 21 22 26 30 35 35 33 32 34 34 35 35 37 39 41 45 47 49 52 52 50
33 29 26 27 36 44 40 35 32 25 21 22 21 23 23 22 25 27 31 36 37 36 36 37 39 42 43 42 39 36 31 29 26 22 20 18 16 17 16 14 14 14 12 13 13 13 13 13 14 14 12 11 11 11 11 12 13 14 17 18 20 21 20 19 19 21 23 24 25 29 33 36 37 35 33 34 34 33 34 36 37 40 46 48 49 51 51 50
35 32 29 29 38 44 40 39 40 33 30 29 28 29 28 25 27 28 31 37 38 38 40 41 42 44 45 42 40 38 34 32 29 24 21 19 19 18 17 15 14 14 14 14 15 14 13 13 13 14 14 13 12 11 12 12 12 12 14 14 15 17 19 18 19 21 22 22 23 27 31 34 35 35 33 33 33 31 32 35 36 40 45 48 49 50 50 50
38 36 32 30 39 45 42 42 44 43 43 38 32 34 34 30 29 27 30 36 38 40 44 44 43 45 46 43 41 39 35 33 31 27 23 24 25 22 20 18 16 15 16 16 16 15 14 14 13 14 14 14 12 12 12 12 12 12 12 12 12 14 16 16 18 19 20 21 24 26 29 32 34 33 32 33 31 29 30 33 36 40 45 47 48 49 50 51
40 38 36 34 38 45 45 44 43 45 49 43 36 35 35 34 32 28 30 36 39 41 46 46 44 45 47 46 43 40 37 34 32 30 28 30 31 28 25 24 20 18 18 18 17 16 15 15 15 13 14 13 13 14 12 12 13 12 11 11 12 14 15 15 17 19 20 23 29 28 27 31 34 33 33 33 31 29 29 32 35 39 43 46 48 50 51 52
43 39 40 40 40 44 48 47 42 41 46 44 40 39 36 35 35 31 32 38 39 41 46 47 45 47 48 47 45 43 39 36 35 33 31 31 33 31 28 28 25 22 20 20 18 17 17 18 16 14 13 14 14 15 15 14 13 12 11 11 13 15 15 15 16 18 19 24 28 28 26 31 35 35 34 33 31 31 31 32 35 38 41 43 46 50 52 52
45 41 41 42 44 47 51 52 46 40 41 41 41 43 40 36 36 36 36 38 39 41 46 49 48 48 48 47 46 45 42 39 37 36 34 33 33 33 31 29 28 26 23 21 20 19 19 19 16 15 13 14 13 14 14 14 14 14 13 14 16 16 16 16 15 17 21 24 26 27 28 32 34 32 32 32 32 32 32 32 36 39 39 40 43 47 51 53
49 44 42 42 44 45 48 51 49 43 40 39 40 43 40 36 35 36 36 39 42 42 45 51 52 48 47 48 47 47 45 42 41 39 36 34 33 35 34 30 29 28 25 23 21 19 19 20 18 17 16 14 14 13 13 13 13 14 15 16 18 18 17 18 17 18 22 24 24 27 30 33 33 30 30 33 32 32 33 33 35 39 41 42 43 45 50 53
56 50 47 44 42 41 45 47 47 46 41 39 40 42 39 35 35 34 33 39 45 45 44 49 52 48 46 47 48 49 47 44 44 41 37 36 36 36 35 33 31 29 26 24 24 21 20 21 20 18 18 16 14 12 13 12 12 14 16 17 19 19 18 18 18 20 24 27 27 30 33 34 33 31 32 34 33 34 35 34 34 38 43 46 46 47 50 52
65 60 55 50 42 39 43 45 45 45 44 43 44 43 41 37 34 32 33 35 41 46 45 45 48 48 46 46 48 48 45 44 44 42 39 39 39 37 35 33 31 30 28 26 26 24 21 22 22 19 17 16 14 12 13 13 13 16 18 21 23 22 19 19 21 24 26 28 31 34 36 35 32 32 34 34 33 33 34 34 35 35 40 45 47 47 49 50
67 64 59 54 46 40 39 40 41 43 46 48 48 44 42 39 33 31 36 36 37 41 42 40 42 47 49 50 48 46 45 44 44 44 42 41 40 38 36 32 30 30 30 28 26 24 21 21 22 19 17 17 15 13 14 16 17 18 20 23 25 23 21 22 25 27 26 27 31 35 36 35 32 31 32 31 31 33 34 35 36 35 37 42 45 46 48 50